Location: Taipo
(41.0000°S, 175.9500°E)
Time: 10:41:47
(UTC+00:00)

Cosmos 1607 - Pass Details

Date: 18 April 2024
Orbit: 908 x 993 km, 65.0° (Epoch: 25 May)

Event Time Altitude Azimuth Distance (km) Brightness Sun altitude
Exits shadow 16:44:09 14° 205° (SSW) 2,352 5.8 -24.5°
Maximum altitude 16:49:27 64° 125° (SE) 1,030 4.3 -23.5°
Drops below altitude 10° 16:55:36 10° 44° (NE) 2,656 6.8 -22.3°
Sets 16:58:10 0° 40° (NE) 3,606 7.5 -21.8°
